Theta_e
311 314 313 314 315 317 315 314 312 312 312 310 310 310 310 312 316 314 320 324 323 337 343 342 340 337 341 340 342 346 348 348 348 347 342 349 348 346 346 345 345 345 347 347 344 344 344 341 338 336 333 332 331 331 331 331 331 333 336 338 340 340 341 341 342 341 342 341 340 338 333 329 327 328 331 334 336 337 338 337 338 339 337 335 336 337 338 338 338 338 337 338 338 338 338 336 335
312 313 314 318 316 317 316 313 311 312 309 307 309 311 311 313 317 316 327 328 327 345 345 344 345 344 346 344 347 348 349 348 347 348 348 348 346 347 346 346 347 346 348 347 345 344 344 343 340 336 333 332 332 331 331 329 327 328 329 332 334 335 335 337 340 340 340 337 332 326 323 324 325 329 331 333 334 335 336 336 337 339 338 337 337 336 336 335 335 337 336 335 337 338 337 336 335
312 311 315 318 314 314 315 312 311 311 308 305 307 311 312 313 317 316 327 333 334 344 343 344 345 344 345 345 348 349 350 347 346 347 346 347 347 346 346 347 346 347 348 346 346 344 344 344 340 336 333 332 331 331 331 329 325 323 323 325 325 326 328 333 337 337 333 327 322 322 326 329 332 334 335 335 333 333 334 336 338 339 340 339 340 338 336 333 335 338 336 334 335 337 336 335 334
309 309 314 316 313 313 315 313 313 311 307 306 307 309 313 314 316 314 323 334 340 342 342 345 345 343 345 348 347 348 350 347 347 346 346 347 347 347 346 347 347 347 347 347 346 344 343 344 342 338 335 331 331 332 331 330 326 323 323 325 324 322 322 326 329 329 328 327 328 332 335 337 338 339 338 337 335 335 335 335 337 339 340 339 340 339 337 334 336 337 335 335 336 336 334 333 332
307 308 313 314 314 314 314 313 313 310 307 308 308 310 313 315 315 313 316 324 335 341 342 345 346 344 345 348 347 350 351 348 348 347 347 347 346 347 346 346 347 347 346 346 345 344 344 344 341 338 335 332 332 333 332 331 327 325 325 328 328 325 321 320 324 329 333 335 336 338 339 340 341 340 338 337 337 337 335 334 335 336 336 336 338 338 338 337 336 334 334 337 337 336 334 333 332
308 310 312 313 313 313 313 310 311 311 310 311 310 312 314 314 314 314 315 314 325 338 343 344 345 345 347 346 346 349 348 348 349 347 347 347 346 346 346 347 347 346 346 346 345 345 345 344 342 338 335 332 332 333 332 331 328 326 327 330 331 329 325 324 330 336 337 336 337 339 340 341 340 339 338 338 337 336 336 335 334 331 331 331 332 335 338 339 337 334 336 338 337 336 335 335 334
310 312 313 313 312 312 314 311 310 311 311 312 312 314 313 314 314 313 315 313 322 339 343 344 344 346 347 345 346 348 346 348 348 347 346 346 346 346 346 346 346 346 346 346 345 345 345 344 342 338 335 332 332 333 334 332 329 328 330 332 333 332 331 331 335 337 336 334 335 338 340 341 340 339 339 339 338 336 335 336 334 332 331 329 329 330 333 337 338 337 337 337 337 336 335 335 334
311 312 312 313 313 313 314 313 311 313 311 311 312 314 315 315 314 313 314 313 321 339 344 344 344 346 348 345 347 348 346 347 348 347 347 346 346 346 346 346 347 347 346 346 345 345 344 344 342 339 336 334 334 334 334 335 333 332 332 333 334 335 335 336 336 336 335 334 335 338 339 340 340 340 340 340 338 336 335 334 335 335 333 331 331 331 330 332 334 336 336 336 337 335 334 333 333
311 312 310 313 314 312 312 312 311 311 311 313 312 314 316 315 314 313 314 313 318 337 346 344 343 345 348 347 349 347 346 347 347 347 345 346 345 345 345 346 346 346 346 345 345 346 344 343 342 341 336 333 334 334 334 334 334 334 334 334 335 337 337 336 335 334 334 334 336 335 336 337 339 340 340 340 338 336 335 334 334 335 333 332 332 333 331 330 330 333 335 335 334 333 333 332 333
311 311 311 313 312 311 310 310 311 311 312 312 312 314 315 314 313 313 314 312 316 338 347 342 343 345 348 349 349 347 345 345 347 346 345 345 344 345 345 345 345 346 346 345 345 345 344 344 344 342 338 334 333 334 335 333 334 334 334 336 337 338 337 337 334 333 334 335 335 333 332 335 337 338 340 340 338 337 335 334 334 334 333 332 332 333 332 332 330 331 333 333 332 332 332 333 332
313 310 310 312 310 309 309 309 311 312 313 312 313 313 313 311 310 311 313 313 322 343 345 343 346 346 348 348 348 346 344 345 346 345 344 344 343 344 345 345 345 345 345 345 346 345 344 344 344 341 337 335 333 334 335 335 335 335 335 337 337 338 338 338 336 333 334 335 334 332 332 335 336 337 338 339 338 337 335 335 334 334 333 332 332 333 332 331 330 330 331 330 330 331 331 330 330
314 311 311 313 311 309 310 310 311 314 315 314 313 314 311 310 313 313 309 314 330 345 344 344 346 345 348 348 346 345 343 344 344 343 343 343 343 344 344 344 344 344 345 345 346 345 345 344 343 342 338 336 334 333 333 335 336 335 337 337 337 338 338 338 336 335 335 335 334 333 334 337 338 338 338 338 337 336 335 335 334 334 335 334 332 332 330 328 328 328 327 327 327 327 327 327 327
313 311 312 312 311 310 310 311 312 315 316 314 313 312 309 314 324 323 317 324 337 343 343 342 343 344 348 348 346 345 343 343 342 342 342 342 342 343 343 344 344 344 345 345 345 344 344 342 342 342 341 340 337 335 334 335 337 338 338 338 338 338 338 338 337 336 336 336 334 333 335 337 339 339 337 335 334 333 333 333 334 335 336 334 331 330 328 326 326 325 324 324 324 324 325 325 326
313 311 312 311 309 311 311 311 312 313 313 313 312 309 312 321 327 332 333 337 342 341 342 342 341 345 348 347 347 346 343 340 340 341 341 342 342 342 343 343 343 343 344 344 343 343 341 339 339 339 341 342 340 339 336 336 338 338 337 337 339 338 339 339 338 338 337 337 337 336 337 338 338 337 334 332 332 331 330 331 331 333 334 333 330 328 326 326 327 325 325 324 324 324 324 325 326
312 310 313 313 310 310 310 311 312 311 312 313 311 308 314 324 328 335 339 341 344 341 342 342 340 342 346 347 348 346 342 339 339 340 341 341 341 342 342 342 342 341 342 342 341 339 336 336 338 339 340 341 341 340 338 338 338 337 337 337 339 339 339 339 339 339 338 338 338 337 337 337 336 335 333 332 331 329 328 328 328 330 332 331 330 329 326 326 327 327 327 325 325 325 324 325 326
310 310 313 313 310 310 310 310 310 310 313 312 310 309 312 325 333 339 338 340 344 341 340 341 339 340 342 343 346 345 341 339 338 340 340 340 341 341 341 341 340 340 340 339 338 337 336 337 339 340 340 341 341 340 340 339 339 338 338 338 338 338 339 339 339 338 338 337 337 337 336 336 335 335 334 332 330 329 328 327 328 329 331 331 330 330 328 327 328 328 328 328 327 326 326 326 326
308 312 314 312 310 310 310 311 311 310 313 312 310 310 310 320 335 342 338 340 343 341 341 340 339 340 341 343 344 343 340 338 338 339 339 340 341 340 340 339 339 338 338 338 338 338 339 339 339 339 340 340 341 341 340 339 339 338 338 337 338 338 339 339 338 338 337 337 336 336 336 336 336 336 335 333 331 330 329 328 328 329 330 330 330 330 330 329 328 328 329 329 329 327 327 326 326
311 314 313 311 311 311 312 312 311 311 312 313 310 310 311 312 330 340 339 341 341 341 340 339 341 341 343 345 344 342 339 338 338 338 338 339 339 339 339 338 339 338 338 338 339 339 339 338 339 339 340 340 340 340 339 339 338 338 338 337 338 339 338 338 338 337 337 337 336 336 336 335 335 334 334 333 332 331 330 329 329 329 330 330 329 329 330 330 329 329 329 329 329 328 328 328 328
312 314 312 311 312 311 312 312 310 312 311 313 312 309 310 310 319 332 337 342 341 341 342 340 343 343 344 344 343 341 339 339 337 338 339 338 338 338 338 338 338 338 338 339 339 339 338 339 338 338 339 339 339 338 338 339 337 338 338 339 338 339 338 338 337 337 337 336 336 336 335 335 333 333 332 332 332 333 331 330 331 331 331 331 330 329 329 330 330 330 330 329 329 329 328 328 329
312 312 312 312 312 312 312 311 310 311 310 312 312 308 311 310 311 320 331 341 341 341 343 342 344 344 346 344 342 341 339 338 337 338 338 337 338 337 338 338 338 337 338 338 338 337 337 337 335 336 338 337 338 338 338 338 338 338 339 339 339 338 338 337 337 336 336 336 335 335 336 336 335 334 333 333 333 333 332 331 332 331 332 331 331 331 330 330 331 331 330 329 329 329 329 329 329
311 310 314 312 310 312 312 312 311 309 309 311 310 310 311 309 311 320 331 338 340 339 340 342 343 344 347 345 341 341 340 339 338 337 337 336 337 337 338 338 338 337 337 336 335 334 336 335 330 334 338 337 338 338 338 338 338 339 339 339 338 337 336 334 334 334 334 334 334 334 335 335 335 336 335 334 334 333 333 333 332 332 332 331 331 331 331 331 331 330 330 329 330 330 329 329 329
311 310 313 311 309 312 312 312 312 310 309 310 310 311 310 309 313 327 336 329 326 331 332 336 341 342 345 345 342 341 340 339 338 337 337 336 337 337 338 337 337 336 334 334 332 330 334 334 329 335 338 338 338 338 338 338 338 339 338 337 335 334 333 332 332 332 332 332 333 333 334 334 335 336 335 334 333 332 333 333 332 332 331 331 331 330 330 330 329 328 329 329 329 330 329 328 327
311 311 310 310 309 311 312 312 312 311 309 310 310 309 310 310 310 322 329 322 325 332 331 334 339 341 343 344 342 341 339 339 339 337 336 336 337 337 337 337 335 333 332 331 328 325 331 335 334 337 339 338 338 338 338 338 339 338 336 334 333 333 332 332 333 333 333 333 333 333 333 334 335 335 336 335 333 332 333 332 332 331 330 330 330 329 328 329 329 329 329 328 327 329 329 328 328
310 312 310 310 309 309 311 310 310 311 308 309 309 308 310 310 310 317 322 329 336 336 334 336 340 342 343 343 342 341 340 340 339 337 336 336 337 336 337 337 333 330 331 332 330 328 333 337 337 338 338 337 337 338 338 338 338 337 336 334 333 332 333 333 334 334 333 333 333 333 334 334 335 336 336 336 335 334 333 332 332 331 330 329 329 329 327 326 330 332 331 329 328 329 329 329 329
309 312 311 309 309 309 310 308 309 309 307 308 306 308 310 308 313 318 325 338 339 337 337 338 339 342 343 343 342 342 341 340 339 337 336 336 337 337 337 335 332 332 333 333 332 331 335 338 337 337 337 337 338 337 337 337 337 337 337 335 333 333 333 333 334 334 333 333 334 334 334 334 335 335 335 335 335 334 334 333 333 332 330 330 329 329 328 325 330 333 331 330 329 329 329 330 329
309 311 310 309 309 309 309 308 310 309 307 307 307 311 308 307 315 319 331 339 339 336 338 338 339 342 343 343 343 342 340 338 338 337 337 336 337 337 336 335 334 334 334 334 332 332 335 337 337 337 336 337 337 337 337 336 336 337 336 334 334 335 333 334 334 333 333 333 334 334 334 334 335 335 335 335 335 334 333 333 334 333 332 331 330 329 329 328 329 331 331 330 330 330 330 330 329
309 310 309 309 309 309 309 310 310 307 307 308 309 312 307 311 315 317 336 339 337 337 338 338 340 343 342 343 342 340 337 336 337 336 336 336 336 337 336 335 335 335 335 334 333 333 335 337 337 336 336 336 336 336 336 335 335 336 334 333 335 335 333 334 334 334 334 334 334 334 334 334 334 334 334 335 334 334 333 334 334 334 333 333 331 330 331 330 329 330 331 330 329 330 330 329 329
308 309 309 309 309 309 309 310 308 307 309 308 309 310 308 314 314 319 338 338 337 338 339 338 340 342 343 342 338 337 337 336 335 333 334 334 335 337 335 334 335 335 334 334 334 335 335 336 336 336 335 335 335 335 335 335 335 335 333 333 334 334 334 335 335 335 334 334 334 334 334 334 334 334 334 335 334 334 334 334 334 334 334 333 332 331 331 331 331 332 332 331 329 329 330 330 329
308 308 310 311 310 311 310 309 308 307 310 308 308 310 310 313 315 330 340 338 338 338 339 339 340 343 343 340 337 337 336 334 333 332 332 333 333 334 334 333 334 335 334 333 334 335 336 336 335 335 334 335 335 334 335 335 335 335 334 333 333 334 334 335 334 334 334 334 335 334 335 334 334 334 334 334 334 334 334 334 334 334 333 333 333 333 332 332 332 333 332 332 331 330 330 330 330
309 308 309 311 310 311 310 308 307 308 309 308 309 309 311 311 314 333 342 337 339 339 340 340 340 342 340 338 337 337 335 332 332 333 331 331 333 333 334 333 333 334 334 333 334 334 336 336 336 335 335 336 335 334 334 334 335 334 334 334 334 334 334 335 334 335 335 335 335 335 335 334 334 334 334 334 334 334 334 333 334 333 333 333 333 333 333 333 333 333 332 332 332 331 331 330 330
309 307 309 310 309 310 310 309 307 310 308 306 310 307 311 311 309 329 342 338 339 339 340 340 339 341 338 338 337 336 334 333 334 333 331 332 333 333 334 333 333 334 334 334 334 334 334 335 337 337 336 336 335 335 334 334 334 333 334 335 335 335 336 336 335 335 335 335 335 334 334 334 334 334 333 333 333 333 333 333 333 333 332 332 332 333 333 333 333 333 332 332 333 332 332 330 330
309 308 310 309 308 310 312 310 308 312 309 306 310 308 311 312 309 328 342 338 339 339 340 340 339 339 337 338 337 335 333 333 334 332 331 332 333 334 333 333 333 334 334 334 335 335 335 336 338 338 337 336 335 336 334 334 335 335 336 336 335 335 335 335 335 335 335 335 334 334 334 333 333 333 333 332 333 333 333 333 332 332 332 332 332 332 332 332 332 332 332 332 333 333 332 330 329
309 309 311 310 310 311 313 312 309 310 310 308 309 309 312 310 312 332 341 338 340 339 340 339 339 339 337 338 337 335 333 334 334 331 331 331 332 334 333 333 333 334 334 334 336 337 337 337 338 339 337 337 337 337 335 336 337 336 337 336 335 334 335 335 335 335 335 334 334 333 333 333 333 333 333 332 332 332 333 332 331 331 331 331 332 332 331 332 332 332 332 332 332 332 332 331 330
311 311 312 312 312 312 312 313 310 308 310 311 309 310 312 313 320 336 341 339 339 339 340 339 339 339 337 338 336 335 335 335 335 333 331 330 332 333 333 334 333 334 334 335 337 337 338 338 339 339 338 338 338 338 337 337 337 337 336 335 334 334 334 334 334 334 334 333 332 332 332 332 332 332 331 331 331 332 332 331 331 331 331 331 331 331 331 331 331 331 331 331 331 331 331 331 330
311 312 312 312 313 313 313 313 312 310 311 311 310 309 311 319 329 341 340 339 340 339 339 339 339 339 338 338 337 336 335 335 336 334 331 330 332 333 333 333 333 334 334 335 337 337 338 339 339 339 339 339 339 337 337 337 337 336 335 334 333 334 333 334 334 333 332 331 330 330 330 330 331 331 331 331 331 331 331 331 331 331 331 330 330 330 330 330 331 331 331 331 330 330 331 331 330
311 311 312 312 312 312 313 313 311 311 312 311 311 310 310 321 336 343 341 340 341 339 339 340 339 339 338 337 337 336 335 336 336 334 332 331 331 332 333 333 333 333 334 335 337 338 339 339 340 340 340 339 338 337 337 336 336 335 333 333 333 333 333 333 333 331 330 329 328 328 328 328 329 330 330 331 330 330 330 330 330 330 330 330 329 329 329 330 330 330 330 331 330 330 330 329 328
312 312 312 312 312 313 313 313 311 310 312 311 310 312 309 320 338 344 341 341 341 340 340 340 339 339 338 337 337 337 335 335 335 333 331 331 332 332 332 333 332 332 333 335 337 338 339 339 340 340 340 339 338 337 337 335 334 333 332 332 332 332 332 332 331 329 327 327 326 326 326 326 327 329 329 328 328 328 328 328 328 329 328 328 329 329 328 329 329 329 329 330 331 330 329 327 327
314 313 313 313 312 314 313 312 311 311 313 312 310 310 310 319 336 342 342 345 342 339 341 340 340 339 338 338 337 337 336 334 333 332 332 332 332 332 332 332 333 332 332 334 337 338 338 339 340 340 340 339 338 338 337 335 332 330 329 329 330 331 331 332 330 328 326 325 325 325 324 324 325 326 326 325 325 325 325 325 326 327 327 327 328 328 328 328 328 329 328 329 330 330 329 328 327
316 313 314 314 312 312 313 314 315 313 313 313 311 311 313 316 325 334 338 342 341 340 340 340 339 338 338 339 337 337 336 335 332 332 333 333 332 333 333 333 332 332 332 333 336 337 338 338 338 339 338 338 338 338 336 334 332 329 328 328 329 330 330 330 328 326 325 324 324 324 324 323 323 324 324 323 322 321 321 322 324 325 325 326 328 328 327 327 327 328 327 328 329 328 328 328 328
316 314 313 313 313 312 312 315 318 316 315 315 314 314 317 317 322 330 331 333 337 338 339 339 339 338 338 338 338 338 337 336 334 333 332 333 334 333 333 333 332 332 331 331 334 337 338 338 338 339 338 338 338 337 336 334 331 329 328 328 328 328 329 328 326 324 323 322 321 322 322 322 322 323 323 322 320 320 320 320 322 323 323 325 326 327 327 327 327 327 327 327 327 328 328 328 328
316 316 314 312 315 314 313 316 319 318 318 318 316 314 315 317 324 331 329 329 335 337 338 340 339 338 338 337 338 338 337 337 335 334 333 333 334 334 333 333 332 331 331 331 333 334 335 334 334 335 335 337 338 337 335 333 331 330 328 328 328 327 326 325 324 323 321 320 319 320 321 321 322 322 322 321 320 320 319 319 320 321 322 323 325 326 327 326 326 327 326 326 326 327 328 329 328
315 318 317 315 317 318 318 320 319 316 316 317 316 313 314 316 320 326 326 329 335 335 337 340 338 338 338 337 337 337 337 336 335 335 335 334 335 334 333 332 331 331 330 330 331 331 331 329 330 330 330 333 337 336 335 333 331 329 328 328 327 327 326 325 324 322 321 320 320 320 321 321 322 321 321 321 320 320 319 319 319 320 322 322 322 324 325 326 326 326 326 327 326 326 327 327 328
313 318 320 316 317 320 321 321 316 313 314 316 316 313 313 316 317 319 320 327 334 334 336 337 337 338 336 335 335 335 335 335 335 335 335 335 335 334 332 331 330 330 329 329 330 330 331 331 332 331 330 333 334 333 333 332 330 328 327 326 326 326 325 324 323 321 321 320 320 320 320 320 321 320 321 320 319 319 318 318 318 320 321 321 321 322 324 324 325 325 326 326 326 326 327 327 327
314 319 317 313 315 320 323 321 316 314 315 316 317 315 313 314 316 315 316 323 330 331 334 335 335 336 335 334 333 333 334 334 334 334 333 335 335 332 330 330 329 329 329 329 329 330 330 331 333 332 330 333 332 330 330 331 329 327 326 326 326 325 324 322 321 320 320 320 319 319 319 319 319 319 319 318 318 318 317 316 316 317 320 320 320 321 322 322 323 324 325 325 326 326 327 327 326
316 317 315 313 315 320 323 319 316 318 317 314 316 317 314 314 316 316 317 321 326 328 330 333 334 334 333 334 333 333 333 333 333 332 333 334 333 329 327 328 329 329 330 329 329 330 330 331 333 332 331 332 332 330 330 330 328 326 326 326 325 324 322 322 320 320 320 319 319 319 319 318 318 318 318 318 317 316 315 314 313 315 317 318 319 319 319 319 320 323 324 324 323 323 323 325 325
314 312 313 313 315 318 320 317 316 318 315 313 317 317 314 314 316 317 317 320 321 322 322 322 324 326 329 331 332 332 332 332 332 332 333 332 329 326 326 326 328 329 329 330 330 330 330 331 332 330 331 331 331 330 329 328 326 325 324 324 323 322 321 320 320 320 319 319 318 318 318 318 317 317 317 317 316 315 314 312 310 311 314 315 316 317 318 318 319 321 323 321 319 319 319 321 323
312 313 313 313 315 318 318 316 316 316 314 314 317 317 316 314 315 317 317 318 317 318 319 319 318 316 320 325 329 330 331 331 330 330 330 329 326 326 327 327 327 328 329 329 329 329 330 331 330 329 329 330 330 329 328 326 325 324 323 322 321 321 320 319 319 320 319 319 319 318 318 317 316 316 317 316 315 314 313 310 308 309 311 312 313 315 316 317 318 320 320 318 317 317 317 317 320
311 314 315 313 315 316 316 316 316 315 315 315 315 316 317 314 314 318 318 318 318 319 321 322 321 319 317 319 323 327 329 329 329 328 328 326 326 326 327 327 328 328 329 328 329 330 330 330 328 327 328 329 329 328 325 325 324 323 322 322 321 320 319 318 318 319 319 319 319 318 317 316 315 315 316 315 314 314 312 310 309 309 310 310 311 312 313 315 317 318 318 317 316 316 316 316 317
312 315 315 314 315 315 315 315 315 315 316 315 314 316 317 314 316 317 318 320 321 322 323 323 323 323 319 317 321 326 327 328 328 328 328 326 327 328 329 329 329 329 328 327 328 328 328 328 327 327 327 328 329 327 324 324 323 323 322 322 321 320 319 318 316 317 319 319 319 318 317 315 315 315 314 314 314 314 313 311 311 312 311 310 309 309 311 313 315 316 316 315 314 314 315 315 314
312 314 314 314 314 314 315 315 313 315 316 315 313 315 316 315 317 317 318 319 321 323 324 324 324 323 323 322 323 326 325 326 326 327 327 326 327 329 329 329 329 328 326 325 326 325 325 326 326 326 326 326 327 326 323 323 323 323 322 322 322 320 320 319 315 315 317 319 319 319 316 314 314 315 314 315 315 314 314 313 313 313 313 312 310 308 308 311 313 314 314 313 313 313 314 314 313
310 312 313 313 314 314 314 315 315 315 317 316 314 315 317 317 318 316 316 319 322 325 324 324 324 324 325 325 325 325 325 325 325 326 326 325 327 329 329 328 328 327 325 324 325 326 325 326 326 326 326 326 326 324 322 322 322 322 322 322 322 321 321 319 315 313 315 317 318 317 315 313 313 313 314 315 315 315 314 314 314 314 314 314 313 311 308 308 311 312 313 312 312 313 312 312 311
309 309 311 312 314 316 314 313 315 316 317 317 315 315 315 316 316 313 316 322 325 325 325 325 326 325 326 326 325 325 325 324 325 326 325 325 327 328 328 328 326 324 324 324 325 325 325 325 326 326 326 326 326 324 323 322 322 322 322 322 322 321 321 319 316 314 315 315 316 315 314 313 312 312 313 313 313 314 313 313 314 313 314 314 315 314 311 308 308 310 312 312 312 312 311 309 308
310 308 311 311 311 317 317 312 312 314 316 316 314 315 316 316 316 315 319 327 326 325 326 326 326 327 326 326 326 325 324 324 325 325 325 325 326 326 326 326 324 323 325 325 324 325 325 325 325 326 326 326 326 325 324 323 323 322 322 322 322 321 321 320 317 315 315 315 315 314 313 314 313 312 313 313 312 313 313 313 313 312 313 314 315 316 314 311 310 309 309 311 311 312 311 310 308
311 310 311 310 309 315 317 314 312 313 316 315 312 315 318 318 317 316 321 328 328 326 326 326 326 327 327 326 326 325 325 326 325 324 325 326 327 325 323 323 323 323 325 325 325 324 325 325 324 325 326 326 327 326 325 325 324 324 323 322 322 321 321 321 318 315 314 314 315 314 313 313 313 313 313 313 312 312 313 314 314 313 313 313 314 315 315 314 313 312 311 310 311 312 312 311 310
308 310 310 310 312 314 314 314 315 314 314 314 312 313 315 316 317 318 321 328 330 327 326 326 326 326 326 325 325 324 325 325 325 324 324 325 325 323 321 322 322 322 325 326 325 324 324 324 323 324 326 326 327 327 326 326 326 326 325 323 322 321 321 321 318 316 315 314 314 314 314 313 313 313 313 313 313 312 313 315 316 316 314 313 313 314 315 314 314 314 313 313 312 311 312 312 311
307 309 309 310 314 315 314 314 315 315 313 312 313 314 315 316 317 318 320 325 329 329 327 326 325 325 325 324 324 323 323 323 323 324 324 324 324 322 321 322 322 323 325 327 327 325 323 324 323 324 325 325 325 325 326 326 326 326 325 323 322 321 321 320 319 317 316 316 314 314 315 315 315 313 313 314 313 312 313 314 316 316 316 315 314 313 314 314 314 314 314 315 314 312 313 313 312
310 311 311 311 311 311 312 313 312 313 313 312 313 315 315 315 315 317 318 320 325 327 327 326 325 324 324 323 323 323 323 323 322 322 323 323 323 322 321 321 321 323 324 325 326 325 323 323 323 323 324 325 324 324 324 324 325 325 324 322 321 321 321 321 319 317 317 317 315 315 316 316 315 315 315 315 314 313 314 314 315 316 316 316 316 315 314 313 314 314 314 315 314 314 314 314 312
310 312 312 312 312 311 312 312 310 311 312 312 313 315 315 315 313 315 316 316 319 324 326 326 324 323 323 322 323 322 322 322 321 321 321 321 322 321 321 320 320 321 322 322 325 324 322 322 323 323 323 323 323 323 324 323 323 323 322 322 321 321 321 320 319 317 318 318 317 316 316 317 317 316 316 316 316 316 315 315 315 315 316 316 316 317 316 315 315 315 315 315 314 314 314 314 314
Wind_Speed
5 4 4 5 5 5 3 1 1 1 1 1 2 1 1 2 1 2 5 5 1 1 1 2 4 4 3 2 4 5 5 2 3 1 1 3 9 16 17 20 25 24 22 21 22 23 23 25 26 26 26 25 25 26 26 27 27 26 26 25 26 26 25 23 22 21 20 20 20 21 21 21 20 20 19 19 20 19 18 18 17 16 16 15 15 15 14 14 13 13 12 12 12 13 12 12 13
5 4 4 5 4 3 2 1 1 1 1 2 3 2 1 1 1 1 7 6 1 2 2 5 7 6 4 4 5 5 5 5 3 3 3 9 14 15 17 21 23 22 22 21 22 23 21 23 25 27 26 25 25 25 26 26 26 26 25 24 25 24 22 21 21 21 21 21 21 21 20 20 20 20 20 20 20 20 19 18 17 15 15 15 16 16 15 15 14 13 13 13 13 13 12 13 13
6 4 5 7 3 0 1 0 1 1 3 4 3 2 1 3 4 2 6 2 4 3 2 3 5 5 3 3 4 3 3 4 4 5 5 12 13 13 18 20 21 22 21 20 21 21 21 22 25 27 26 26 25 25 25 25 26 25 25 24 24 23 21 21 21 22 23 22 21 21 20 20 19 19 19 20 21 21 20 18 17 15 14 15 16 16 16 15 14 14 13 13 13 13 13 13 14
6 5 6 5 1 0 2 1 1 2 3 3 1 2 3 4 4 1 4 1 5 1 1 2 3 3 3 4 3 3 4 3 4 5 6 10 10 14 19 19 20 20 20 20 20 21 21 23 26 27 27 27 26 26 25 25 25 25 24 23 23 23 22 22 23 23 22 20 19 19 19 18 17 18 19 20 21 21 20 19 17 15 14 15 16 15 14 15 15 14 13 13 13 13 13 14 14
6 5 5 3 1 1 1 1 1 2 4 2 1 1 3 2 2 2 3 3 5 3 1 2 2 2 3 5 2 1 3 4 6 6 7 10 12 16 18 19 19 18 19 19 20 21 20 23 26 26 27 27 26 26 25 25 25 25 23 22 22 22 23 23 23 22 19 18 18 18 18 17 16 18 19 20 20 20 19 19 18 16 14 14 14 13 14 15 15 14 14 13 13 14 14 14 13
6 5 3 1 0 0 1 2 2 4 3 2 1 1 3 2 3 4 4 6 5 4 1 2 3 4 4 4 1 2 2 1 5 6 8 12 15 17 18 19 18 19 19 19 21 22 21 24 26 26 26 27 26 26 25 25 25 24 23 21 21 21 21 21 21 19 18 18 17 17 16 16 17 17 18 19 19 18 17 17 17 16 15 15 14 13 13 14 15 14 14 14 14 14 14 14 13
6 4 1 2 2 1 2 3 4 4 1 3 1 1 3 4 4 5 5 5 2 4 1 2 5 6 4 2 2 3 4 2 3 7 10 15 17 17 17 17 18 18 18 19 21 21 22 24 25 26 26 26 26 26 25 25 25 25 23 22 20 19 19 19 19 18 18 18 17 16 15 15 16 18 19 18 17 17 17 16 15 16 16 15 14 13 12 12 13 13 13 14 14 14 14 13 12
5 2 1 1 2 1 2 2 3 2 1 2 2 4 7 6 4 6 5 2 1 2 3 6 6 4 3 1 3 4 5 3 7 12 13 16 17 17 16 16 18 18 18 20 20 20 22 24 24 24 24 24 23 24 24 24 24 24 24 23 21 20 19 19 18 18 18 18 17 16 16 15 14 16 17 16 16 17 16 15 14 14 14 14 13 12 11 11 11 12 12 12 12 13 13 12 11
3 1 0 1 1 0 1 2 2 2 2 3 4 7 9 7 6 7 7 5 3 3 5 7 4 2 5 4 3 3 5 7 13 15 15 16 17 16 16 17 18 18 19 21 21 22 23 24 23 21 22 24 23 23 24 24 24 23 24 23 22 21 20 19 18 18 18 17 16 16 15 15 14 14 14 15 16 16 15 13 12 13 12 12 12 11 11 11 11 11 12 11 11 11 11 11 10
1 1 1 1 2 2 2 2 1 1 3 4 5 8 8 6 6 8 9 6 5 6 5 4 1 4 8 6 4 3 4 9 14 15 15 16 16 15 15 16 18 20 21 21 22 23 23 23 21 20 21 23 23 22 23 24 23 23 22 22 22 21 20 19 18 18 18 17 16 16 14 14 14 14 14 14 15 14 13 12 11 11 11 11 11 10 11 11 11 12 12 11 11 11 10 10 8
1 1 1 1 2 3 3 2 1 2 3 4 5 6 6 5 4 7 9 6 5 7 6 3 5 9 9 5 3 4 6 9 13 16 14 16 16 15 15 16 18 20 20 20 21 22 21 21 20 20 20 22 23 22 22 22 22 21 21 21 20 20 19 19 18 18 17 16 15 15 14 13 13 14 14 13 13 13 12 11 10 10 11 10 10 9 10 10 11 12 12 12 12 11 10 8 7
1 1 0 2 2 2 2 1 2 3 4 3 2 3 4 4 3 5 8 6 5 8 7 4 6 8 7 6 3 5 8 8 12 15 14 16 16 14 15 16 18 19 20 20 21 21 21 19 18 17 19 21 22 22 22 21 20 20 19 19 19 18 18 18 18 17 16 15 15 15 14 13 13 13 14 12 12 12 11 10 10 10 10 10 9 9 10 11 12 13 13 13 12 11 9 8 7
1 2 2 2 1 1 1 1 2 3 2 1 1 6 6 2 1 2 5 6 8 8 5 3 8 6 5 5 3 5 8 8 12 14 15 16 16 14 15 16 18 19 19 20 20 20 19 16 15 15 17 18 19 20 20 20 20 19 19 18 17 17 18 18 17 17 16 15 14 13 13 13 13 13 13 12 12 12 11 11 11 11 11 10 10 9 11 13 14 14 13 13 12 11 9 8 7
2 1 2 2 0 1 2 1 1 1 0 2 1 6 5 2 3 1 6 8 6 3 3 5 6 4 4 5 2 5 8 11 14 14 15 16 16 15 16 17 18 19 18 19 18 18 17 15 14 15 16 17 17 18 18 18 18 19 18 17 17 16 17 17 16 16 16 15 14 13 12 13 13 13 12 11 11 11 11 11 11 11 11 10 10 10 11 14 14 14 13 12 11 10 9 8 8
2 1 1 2 1 1 2 1 1 2 2 2 2 5 3 3 3 2 5 5 4 2 4 5 1 1 5 6 4 7 12 16 16 16 17 18 18 17 17 17 18 18 17 17 17 17 17 16 14 15 16 16 16 17 18 17 17 18 17 17 16 16 16 16 16 15 15 15 15 14 13 13 12 11 11 10 10 10 10 10 10 10 11 10 11 11 11 13 13 12 11 11 10 10 9 9 8
1 2 1 1 2 2 3 2 1 2 2 1 2 6 4 5 3 2 3 2 6 3 2 3 3 3 4 4 4 13 18 19 18 18 19 19 19 18 17 17 18 17 16 16 17 17 17 16 15 15 16 16 16 16 18 17 17 17 16 16 16 16 16 15 15 15 15 15 15 14 13 12 11 10 10 10 9 9 9 9 10 10 10 10 10 11 11 11 10 9 9 8 9 9 9 9 8
1 1 1 2 2 3 3 4 3 1 1 0 3 7 7 6 4 3 3 5 8 4 4 4 4 4 1 4 13 21 22 21 20 19 20 19 18 17 17 18 19 17 16 16 16 16 16 16 15 14 15 15 15 15 16 17 17 17 16 16 16 17 16 15 15 15 15 15 14 14 13 12 11 11 10 10 9 9 9 9 10 10 10 9 9 9 10 9 8 7 6 6 6 7 7 8 8
2 2 2 3 3 3 4 5 4 1 2 3 5 5 5 5 3 3 4 7 7 5 6 5 5 6 6 12 21 24 22 22 21 20 20 18 17 17 17 19 19 17 17 16 15 15 15 14 14 15 15 13 13 14 15 16 17 17 16 16 16 16 16 15 15 15 15 14 14 14 13 12 12 11 10 10 9 9 8 9 9 9 9 9 8 8 8 8 7 6 5 5 5 5 5 5 5
1 2 2 3 3 2 3 3 2 1 2 5 5 1 3 5 2 2 2 3 5 4 5 4 6 8 10 16 22 23 22 21 20 20 20 19 18 17 17 17 17 16 16 15 14 14 14 13 14 14 14 12 11 13 14 15 16 16 16 15 15 16 15 15 14 14 14 13 13 13 12 11 11 10 10 9 9 9 8 8 7 7 8 8 8 7 7 7 6 5 4 4 5 4 4 4 3
1 1 2 3 4 3 3 4 4 3 2 6 4 1 3 3 2 1 1 3 3 3 3 3 5 8 12 15 19 21 21 19 19 21 20 19 19 17 17 17 17 16 16 15 14 15 14 14 15 14 13 15 14 14 15 15 15 15 15 15 15 15 15 14 13 13 12 12 11 11 10 10 10 9 8 8 8 8 8 8 7 6 6 6 7 6 6 6 5 4 3 3 4 4 3 3 2
2 2 2 2 3 3 4 5 5 3 2 4 3 3 3 1 1 1 3 5 3 4 4 5 8 13 15 15 16 19 19 18 18 21 21 19 18 17 17 16 17 17 17 16 13 13 13 15 20 16 12 15 15 15 14 14 15 14 14 14 14 14 14 13 12 12 11 10 10 10 9 9 9 8 8 8 8 8 8 8 7 7 6 6 6 5 5 5 4 3 2 3 3 4 3 3 2
2 2 2 3 4 3 5 4 3 3 2 2 2 4 3 1 1 2 5 5 1 1 1 3 10 15 18 17 16 16 17 17 17 18 20 20 19 18 17 16 19 21 21 21 16 15 15 17 21 17 12 14 14 14 13 13 14 13 14 14 14 14 13 12 12 11 10 9 10 9 8 8 8 8 8 8 8 8 8 8 7 7 7 6 5 5 4 4 3 2 2 2 3 4 3 3 3
3 2 1 3 4 4 3 2 2 3 2 3 2 3 2 1 1 1 5 4 2 3 2 5 12 16 18 18 16 16 16 16 16 18 20 21 21 21 20 20 23 24 26 28 28 27 22 19 20 16 13 14 14 13 12 12 11 12 15 14 14 13 12 12 11 11 10 9 9 8 8 8 8 8 7 8 7 8 8 8 8 7 7 6 5 4 4 4 3 2 2 2 3 4 3 3 3
3 2 1 3 5 6 5 3 2 2 4 3 1 3 4 4 2 1 4 3 4 4 2 10 14 17 18 17 16 16 16 16 16 17 18 19 21 21 22 23 24 26 27 25 26 27 22 17 17 16 14 14 15 13 12 12 11 12 13 13 12 12 12 12 11 10 8 8 7 7 7 8 8 8 7 8 7 7 8 8 8 7 7 6 6 5 3 4 4 3 2 2 3 4 3 3 3
3 4 2 1 4 6 4 3 5 4 5 2 2 5 5 4 1 1 2 3 4 3 7 13 15 17 16 16 17 15 14 15 16 17 15 15 17 18 20 23 23 24 22 17 18 20 16 15 17 16 15 15 15 14 12 11 11 11 11 12 12 11 11 11 10 8 7 7 6 6 6 6 7 7 7 8 8 7 7 7 7 7 7 6 6 5 4 4 4 3 2 2 3 3 3 4 3
4 5 2 2 3 5 3 4 5 4 3 4 5 5 2 1 2 2 2 2 3 6 9 12 15 17 16 15 16 13 13 14 16 17 14 14 16 16 18 21 19 18 16 14 18 18 14 15 15 14 14 14 14 15 12 11 11 11 11 12 11 9 11 11 9 9 8 7 6 6 6 5 5 6 7 7 7 6 6 6 6 7 7 7 6 5 5 5 5 3 3 2 1 2 2 3 3
3 4 3 5 4 4 3 4 3 1 3 6 6 3 2 1 3 3 1 3 7 9 10 12 14 16 15 14 12 11 12 15 17 16 14 13 13 13 15 16 15 15 14 14 16 15 14 14 14 13 13 12 12 12 12 12 11 10 11 12 9 9 11 11 10 10 9 8 6 6 6 5 6 7 7 6 5 5 5 5 6 6 7 7 6 6 6 6 5 4 3 3 2 2 2 3 3
1 3 2 4 4 5 4 5 4 2 3 6 6 2 4 3 3 2 4 8 9 11 11 12 13 14 14 12 10 10 11 15 17 15 15 17 19 19 16 16 15 13 15 16 14 12 13 14 12 12 12 11 11 11 11 12 11 10 10 12 10 10 12 11 11 10 8 7 6 7 6 7 7 7 6 5 5 5 5 5 5 6 6 7 7 7 7 5 4 4 3 3 4 6 5 5 4
1 2 3 3 3 4 5 3 2 3 2 5 6 2 2 4 3 2 7 10 10 11 11 12 12 12 12 10 10 10 11 15 15 14 16 19 22 21 16 14 15 14 14 15 14 13 13 12 12 11 11 11 11 11 11 11 11 9 9 11 10 10 11 10 9 7 6 6 6 6 6 7 8 7 6 6 7 6 5 6 6 6 6 8 8 7 6 4 3 3 3 2 4 6 6 5 4
2 2 2 2 2 3 4 1 1 3 2 5 6 4 4 5 3 5 9 12 12 11 11 11 11 10 9 9 9 10 10 13 13 12 13 15 17 16 11 11 14 13 12 14 15 14 13 12 11 11 11 12 11 11 10 10 9 8 9 9 9 9 8 7 6 5 4 4 4 4 5 6 6 6 7 6 6 5 5 6 6 6 6 6 6 6 5 4 3 3 3 3 3 4 4 3 3
1 2 1 1 2 3 2 2 3 3 1 4 6 5 4 4 4 8 10 12 13 12 12 12 11 10 8 9 10 9 9 11 11 9 12 16 16 14 12 11 13 13 13 14 15 14 15 13 11 11 11 12 11 10 9 9 9 10 10 8 7 6 5 4 4 4 4 4 4 3 3 3 4 5 5 5 4 5 6 6 5 5 6 6 6 5 4 3 3 3 3 3 3 3 3 2 2
1 1 2 0 2 2 1 2 4 3 2 3 7 4 5 3 3 9 11 12 13 12 12 12 11 10 9 9 9 9 8 9 10 8 11 16 14 14 13 12 13 14 13 13 14 14 15 14 12 11 12 13 11 10 10 11 11 10 9 8 7 5 5 5 5 5 4 3 3 2 2 2 3 4 3 3 4 4 5 5 3 4 5 5 5 4 3 2 3 3 3 2 2 2 3 2 1
1 1 2 1 2 2 1 1 2 2 2 3 7 3 3 1 2 9 12 13 12 10 11 11 11 10 9 9 8 8 7 8 8 7 10 14 12 12 12 12 14 14 13 14 14 14 16 15 14 13 13 13 11 10 11 12 11 10 8 8 7 6 6 6 5 5 4 4 3 2 2 3 3 3 2 2 3 4 4 3 2 2 3 4 4 3 2 3 4 4 3 3 2 1 1 1 1
1 1 1 1 2 2 1 1 1 1 2 4 6 6 4 2 3 11 12 12 12 10 11 11 11 10 9 8 8 8 8 9 10 10 12 13 12 11 10 11 13 14 15 14 13 14 16 15 14 14 14 14 13 13 13 12 11 9 8 8 7 8 8 7 6 5 5 4 4 4 3 3 2 2 2 2 1 2 3 2 1 1 2 2 2 2 2 4 5 5 3 2 2 1 1 1 2
3 2 1 1 2 3 3 2 1 1 3 4 6 8 7 1 4 11 11 11 11 9 10 10 10 11 10 9 8 8 9 11 13 11 11 12 12 10 9 11 12 15 16 14 12 15 16 15 14 14 15 15 15 14 12 11 10 9 9 9 8 8 8 8 7 6 6 6 6 6 5 4 3 3 2 3 2 1 1 2 1 1 1 0 0 0 1 3 4 5 3 2 1 1 2 4 5
4 2 1 1 2 3 4 3 0 0 3 5 6 8 7 4 6 10 11 11 11 9 9 9 10 10 10 10 9 9 10 12 11 8 9 10 11 10 9 10 12 14 16 14 15 17 16 16 16 15 16 16 15 13 12 11 10 9 9 9 8 8 8 9 8 8 8 8 7 6 6 5 5 5 5 5 4 3 3 2 1 1 1 2 2 1 1 2 2 3 3 3 2 1 3 6 7
3 2 2 2 2 4 3 1 1 1 3 3 4 5 4 4 7 9 10 10 10 10 10 9 10 10 10 11 11 10 10 9 8 7 9 10 10 10 9 10 11 13 15 15 16 17 17 17 17 16 15 16 14 13 13 12 11 11 10 10 9 10 10 9 9 10 9 8 7 7 7 7 7 7 7 7 6 5 4 3 2 1 1 2 1 0 1 1 1 1 2 3 4 3 5 5 6
1 2 2 2 3 4 2 0 1 1 3 1 2 4 2 2 5 5 6 9 10 10 10 9 11 11 10 11 12 12 9 7 6 8 10 11 12 11 11 11 12 14 17 17 16 15 16 17 17 17 16 15 14 14 13 12 12 13 12 12 12 13 11 9 10 10 9 8 7 7 7 8 7 7 7 7 7 6 6 5 4 3 2 1 1 1 1 2 3 2 1 2 4 4 5 5 5
1 1 2 1 2 3 1 1 3 2 2 0 3 4 2 2 1 1 2 4 6 7 8 8 10 10 10 11 11 11 10 8 8 9 11 13 14 13 13 13 13 15 16 16 14 12 13 14 14 16 17 16 15 14 13 12 12 12 11 13 14 14 12 10 11 10 8 8 7 7 6 6 6 6 6 7 7 6 6 5 5 5 4 3 3 2 2 1 2 2 2 2 4 4 4 3 3
2 2 2 1 0 1 1 1 3 3 0 1 4 4 3 3 2 2 1 2 2 3 4 6 8 9 10 10 9 11 12 11 10 10 10 13 16 16 15 14 14 14 12 12 13 9 9 11 14 18 18 17 16 15 14 13 12 12 11 13 14 13 13 12 11 9 8 6 6 7 6 5 5 5 6 6 5 5 5 5 5 5 5 5 4 3 3 3 2 2 1 2 3 4 4 2 2
2 3 4 2 1 3 1 1 2 2 2 4 3 4 3 2 4 5 2 1 2 4 4 6 8 9 8 9 10 10 11 12 12 12 11 13 15 16 16 14 12 10 7 8 8 5 5 5 7 11 13 15 16 15 15 15 14 14 14 14 13 12 12 11 10 9 7 6 6 7 7 6 7 7 7 6 4 4 4 4 4 4 4 4 4 4 4 5 4 3 3 3 2 3 5 4 3
2 5 8 6 3 3 2 1 1 2 3 3 1 2 3 3 3 4 3 4 5 4 6 9 9 10 9 9 10 10 11 11 12 13 13 12 14 16 14 11 10 9 9 9 7 6 7 7 5 5 5 9 13 15 16 17 17 16 17 16 13 12 11 10 9 9 8 8 9 9 8 8 8 7 7 5 4 3 3 3 3 3 3 4 5 5 6 5 5 4 4 4 3 2 4 5 4
1 3 7 7 4 2 2 1 1 2 2 2 1 1 3 3 3 1 2 6 7 5 6 8 9 10 10 10 11 11 12 11 11 13 13 13 14 14 10 9 12 14 14 12 10 10 12 14 13 11 10 11 12 14 16 17 18 17 17 16 13 12 11 10 10 9 9 10 11 11 10 9 8 7 6 5 4 3 3 3 2 2 2 2 4 4 5 6 6 6 5 5 5 4 3 2 3
2 1 5 7 5 4 3 1 1 0 0 1 1 2 2 3 2 1 2 5 7 6 7 8 8 9 10 11 12 12 12 11 11 12 13 14 11 7 7 14 18 19 16 14 14 15 15 16 15 15 17 15 12 14 16 17 17 17 17 16 13 12 11 11 11 9 10 11 12 12 11 10 8 7 6 5 4 4 3 3 3 3 2 2 3 4 4 6 6 6 6 6 5 4 4 3 2
0 2 4 5 4 3 2 2 2 1 1 3 1 3 1 2 1 1 3 4 6 6 7 7 7 8 9 10 11 11 12 12 11 11 12 10 3 12 18 22 23 18 14 14 15 16 15 14 15 17 18 15 12 14 17 17 17 16 17 16 13 12 11 11 11 10 11 12 12 12 10 9 8 7 6 6 6 5 4 4 4 3 3 3 4 4 4 5 5 5 6 7 6 6 6 4 4
2 5 6 6 4 3 2 1 3 1 2 4 1 4 1 3 0 1 2 3 3 2 3 3 4 6 7 8 8 8 8 9 10 9 6 5 16 27 28 23 17 12 12 15 16 16 15 16 18 19 18 16 15 16 18 18 17 16 17 15 14 14 13 12 12 12 13 13 12 11 10 8 7 6 7 7 6 5 5 5 4 3 3 4 4 4 5 5 5 5 6 7 8 9 8 6 5
5 6 6 5 3 2 2 2 2 2 3 2 2 5 1 3 1 1 1 1 1 3 3 2 3 5 6 6 6 6 6 6 6 5 7 17 25 29 26 20 18 18 17 18 18 17 17 20 21 19 18 17 17 18 19 19 19 18 16 15 14 15 15 14 14 14 14 13 12 11 9 7 7 7 8 8 7 6 6 6 5 5 5 4 4 4 4 4 5 5 6 7 7 8 8 7 7
3 2 4 4 2 1 1 1 0 4 3 2 2 3 2 3 2 1 1 2 3 4 5 6 6 7 5 4 4 5 4 3 5 6 10 17 19 18 17 18 21 22 22 24 26 24 22 22 22 21 20 19 18 20 20 20 20 19 16 14 13 14 13 13 15 16 15 14 12 10 9 8 9 9 9 8 7 7 7 7 7 8 7 6 6 5 4 4 4 5 5 5 6 7 7 7 8
1 2 4 4 2 1 2 1 1 3 1 1 2 1 1 2 1 2 3 5 5 5 5 7 9 8 6 4 2 1 2 4 6 7 10 13 12 12 14 16 18 21 22 19 17 20 24 24 25 24 21 20 21 22 22 22 22 20 17 15 13 13 11 10 12 14 14 13 11 10 10 10 10 11 10 9 8 7 7 8 8 9 9 8 8 7 5 5 4 4 4 4 5 6 7 7 8
4 4 4 4 4 2 3 1 1 2 1 1 2 1 1 1 1 2 4 6 6 5 5 5 6 5 3 3 5 6 7 7 7 8 10 10 9 10 11 12 11 11 12 11 9 11 19 21 23 23 21 22 24 25 24 24 23 20 18 16 14 13 11 9 10 12 13 13 11 10 9 10 10 10 9 9 7 7 7 8 8 9 9 10 10 9 7 6 5 4 4 5 6 7 6 7 7
2 1 1 4 4 3 3 3 3 3 1 2 1 1 2 2 1 3 5 4 3 3 3 2 2 3 6 8 10 11 10 9 9 10 11 10 9 8 7 8 7 8 16 17 9 13 16 17 21 23 23 26 27 26 25 24 23 21 19 18 16 14 12 10 11 12 12 12 11 10 9 9 9 9 8 8 7 7 6 7 7 7 8 9 10 10 9 8 6 5 6 6 6 6 5 5 6
1 0 1 2 3 3 1 0 1 1 1 1 2 1 1 0 0 2 3 1 2 3 2 3 6 7 9 10 11 11 10 9 9 10 11 11 11 10 7 2 5 16 21 16 11 14 14 16 21 24 25 27 27 25 24 24 23 22 21 20 18 16 14 12 12 13 12 11 11 11 10 9 9 8 8 7 7 6 6 6 6 6 7 7 8 9 10 9 8 7 6 6 6 6 5 5 6
3 2 3 1 0 4 3 2 2 1 2 2 1 1 1 1 2 3 3 3 3 3 3 5 6 8 10 10 10 10 10 9 8 8 9 10 10 11 11 4 7 18 23 16 14 14 16 21 23 25 25 25 24 24 24 23 22 22 22 21 20 19 16 14 13 14 14 12 11 12 11 10 9 8 7 7 6 6 5 6 6 6 6 6 7 7 9 9 10 9 8 7 6 6 6 6 7
3 3 5 4 1 2 2 2 2 0 3 2 0 1 1 2 3 3 4 4 4 4 4 5 5 7 8 8 6 7 8 8 8 7 5 6 7 10 14 11 6 17 21 15 15 17 19 22 24 24 24 25 26 26 24 23 22 21 21 22 22 20 17 15 13 14 14 13 13 12 11 10 9 8 7 6 6 5 5 5 5 5 5 5 5 6 6 8 9 9 8 7 6 6 6 6 7
1 2 5 3 2 2 2 1 2 3 3 1 1 0 1 4 2 2 5 5 5 5 3 4 4 5 5 5 4 3 4 4 5 6 3 1 5 9 18 18 8 12 14 11 12 17 19 21 21 20 21 22 24 24 24 23 21 20 20 20 21 20 18 16 15 14 15 14 13 13 11 10 8 8 7 6 5 5 4 3 3 3 4 5 5 5 5 5 6 7 7 6 6 5 5 5 5
4 4 3 1 1 2 2 1 1 4 3 1 2 1 3 4 2 3 6 6 6 7 5 4 3 2 2 2 2 1 2 2 2 5 4 3 5 6 17 21 16 14 14 12 12 16 18 19 18 17 16 15 16 19 21 22 21 20 19 19 20 19 18 17 15 15 15 14 13 13 12 11 10 9 7 6 6 5 4 3 2 2 2 2 3 3 3 3 4 4 4 4 4 4 3 3 3
2 4 4 1 1 1 1 2 1 1 3 2 3 3 2 1 0 1 2 3 5 6 5 4 3 3 3 3 3 2 3 4 3 4 4 4 3 7 12 15 18 18 18 21 20 18 16 17 18 16 13 10 10 13 16 18 20 19 18 19 19 19 18 17 16 16 16 15 14 14 12 11 11 10 9 7 6 5 5 3 2 1 1 1 1 2 2 3 3 3 3 2 3 3 1 1 2
2 3 3 3 3 3 4 3 1 0 1 2 3 3 2 3 2 2 2 2 3 4 4 4 3 4 4 3 3 3 3 5 5 5 4 3 5 9 10 11 14 14 14 18 21 18 15 15 14 13 11 8 7 10 12 14 16 17 18 19 19 20 19 17 16 16 16 16 15 14 13 12 11 10 9 8 6 4 3 2 1 1 2 3 3 4 4 4 4 4 4 3 4 4 4 4 3
Wind_Direction
148 139 134 154 145 149 153 240 205 120 256 241 240 255 185 215 314 275 320 320 210 46 326 73 87 116 116 102 135 106 41 134 141 136 129 75 132 144 148 148 147 146 146 148 151 154 153 157 156 152 149 146 144 143 143 143 144 143 141 140 143 146 147 148 148 148 146 144 143 144 143 140 137 131 127 123 122 122 124 125 124 126 126 125 127 127 123 121 121 123 122 121 122 124 123 125 130
158 145 147 154 135 162 157 328 234 131 209 235 232 195 77 204 182 302 338 340 131 103 92 83 81 71 42 62 93 97 56 28 40 65 80 113 127 135 143 144 144 145 145 147 150 151 153 157 156 154 151 148 144 142 142 142 143 143 143 141 144 146 144 144 144 144 143 143 144 144 140 135 129 124 119 118 121 124 125 124 126 129 129 129 128 125 122 120 121 124 124 124 126 127 128 130 133
166 151 152 152 112 353 131 32 248 157 194 227 230 158 125 195 159 37 358 352 158 142 128 92 79 47 2 83 53 18 67 49 79 85 106 129 126 133 143 144 145 144 143 146 149 149 152 157 158 156 153 150 145 143 142 141 141 141 141 141 143 144 142 141 142 144 144 144 142 138 134 130 126 123 119 116 117 120 124 124 125 124 129 133 125 117 115 117 121 124 124 127 131 130 132 136 134
171 156 163 165 122 339 147 168 218 171 199 220 255 153 197 188 158 15 5 129 184 195 33 114 89 23 359 78 39 3 82 76 94 106 125 133 131 137 143 145 144 142 142 145 147 147 152 159 159 156 153 151 147 145 144 142 140 140 140 139 139 141 142 144 145 145 143 139 136 135 133 131 133 132 126 122 119 120 122 122 123 119 120 121 115 114 116 121 122 124 128 129 132 133 137 141 135
171 154 173 200 191 157 141 144 107 207 209 185 52 155 199 177 171 275 331 292 236 224 49 140 112 71 68 60 13 0 85 94 105 122 126 127 135 140 142 144 142 142 143 144 146 146 153 161 159 157 154 151 149 145 144 143 141 140 139 138 137 138 143 145 143 140 138 136 136 137 134 135 138 134 128 126 123 120 121 122 125 125 121 116 114 113 115 123 125 127 133 131 132 134 137 143 142
161 143 141 168 105 113 156 182 192 221 220 158 149 154 190 220 276 279 275 291 263 200 177 161 119 123 111 57 56 51 25 125 130 132 130 136 140 142 143 142 142 141 142 143 146 146 154 162 159 158 156 152 150 146 145 144 141 140 139 138 137 137 140 140 138 137 138 137 137 137 134 134 136 134 130 128 125 122 124 126 124 122 121 118 115 111 109 117 123 127 133 134 137 138 140 144 148
161 151 89 127 103 337 203 216 219 228 209 163 224 307 261 261 254 274 279 288 237 170 190 156 134 129 112 77 124 65 4 313 147 130 134 139 139 141 141 140 140 139 142 144 145 148 156 160 156 157 156 152 150 148 145 143 142 142 141 140 138 136 134 135 137 140 141 139 139 139 134 132 133 135 135 131 128 126 130 132 127 122 118 115 112 110 113 119 124 129 136 140 141 145 147 148 149
160 155 338 166 131 344 209 237 241 225 207 190 257 273 275 277 234 263 272 249 194 167 160 153 152 131 109 145 140 72 36 65 124 124 132 137 138 141 140 139 138 138 143 144 144 148 154 154 152 153 153 151 148 147 145 143 143 144 143 142 139 137 135 138 142 144 143 142 142 140 134 131 131 134 136 136 133 132 134 132 130 126 116 112 109 107 115 125 130 133 139 144 143 145 148 153 154
129 62 211 190 150 189 224 250 257 221 263 272 265 256 268 274 240 251 250 233 230 193 153 153 181 155 143 150 123 78 60 102 121 125 135 138 138 140 139 142 139 138 142 144 145 146 150 149 147 146 149 150 148 148 148 149 148 147 146 144 142 140 140 143 146 148 148 146 144 141 137 133 134 137 140 140 137 136 134 130 128 125 114 109 108 105 111 123 133 136 139 145 145 147 151 156 159
86 13 164 146 157 211 236 233 257 226 250 270 275 268 276 275 238 235 243 242 209 176 142 135 132 138 142 137 119 86 96 124 123 125 136 138 139 137 137 142 139 138 141 144 145 146 148 146 144 144 149 152 152 152 151 151 151 148 146 145 144 144 145 147 150 153 152 150 147 145 141 140 143 146 146 142 140 138 133 131 128 123 116 111 110 107 112 122 133 141 145 150 151 157 162 162 163
127 42 146 161 185 215 230 231 246 264 274 291 278 266 282 279 241 227 232 233 194 157 147 154 127 132 131 128 124 90 118 136 126 125 133 138 139 134 131 136 138 137 139 142 141 144 144 143 144 147 153 155 155 156 153 152 150 147 147 147 147 147 147 149 153 153 154 153 151 150 149 150 150 149 148 143 142 141 137 136 130 125 122 117 115 112 116 127 136 145 150 151 153 157 161 161 160
169 131 171 184 205 218 229 260 266 284 285 295 316 340 331 272 240 227 219 205 174 149 157 194 152 139 123 127 126 109 128 132 126 127 130 136 137 133 130 132 137 136 137 139 139 141 142 143 145 147 151 153 155 156 156 155 152 152 152 151 150 149 147 149 154 153 154 154 154 157 156 154 151 147 146 144 143 143 142 141 135 131 129 124 122 118 117 125 133 140 143 144 146 149 150 150 148
183 148 166 176 240 184 156 256 278 297 286 186 348 339 331 281 318 249 197 161 151 154 156 163 153 136 110 126 119 131 135 126 126 127 129 134 135 131 130 132 136 135 136 138 138 140 141 141 144 146 149 152 155 157 158 157 155 156 154 153 151 147 144 148 154 153 155 154 156 162 158 152 150 148 147 145 144 144 146 148 145 140 138 132 129 123 119 124 128 132 135 138 141 142 142 142 141
186 164 185 174 49 159 167 222 260 252 155 98 24 319 324 357 351 101 127 121 127 149 113 120 147 123 111 133 152 167 137 127 129 124 128 131 131 130 129 132 133 134 135 135 135 139 141 140 143 150 154 156 155 156 160 159 156 155 153 152 148 142 143 148 154 157 159 156 155 158 153 151 151 149 147 146 146 146 150 152 154 152 147 138 132 125 121 127 127 125 129 134 138 138 138 138 139
182 140 153 158 129 182 202 226 256 188 140 65 24 316 337 36 351 93 90 96 89 63 114 111 74 357 153 164 188 173 136 129 129 122 125 123 124 125 125 129 129 131 131 131 134 139 142 142 146 153 157 156 154 155 158 158 155 153 153 151 146 141 143 148 152 156 156 153 153 152 150 150 150 147 146 149 147 144 144 144 147 151 149 138 132 128 124 130 129 125 126 129 132 134 136 138 139
151 128 131 173 172 192 196 196 211 176 142 98 355 331 6 48 24 45 20 115 115 94 101 87 356 351 163 171 136 139 132 129 128 122 121 118 119 120 122 126 128 128 128 131 137 139 141 144 146 152 156 155 153 154 153 154 153 153 154 149 146 143 143 145 146 146 145 146 149 150 151 151 149 150 150 150 147 141 137 136 136 138 140 134 130 130 127 132 135 133 130 131 131 132 137 141 141
140 173 182 184 195 196 186 190 189 151 41 317 4 359 12 33 45 75 66 103 115 91 48 46 8 359 101 104 112 125 129 130 129 124 120 119 121 123 126 128 129 128 129 133 137 138 139 142 145 150 155 154 152 150 147 149 151 152 151 147 144 142 140 140 141 141 141 145 151 155 158 155 152 154 154 150 145 139 132 131 131 130 132 131 131 133 132 133 139 142 140 141 142 137 135 138 139
180 183 203 206 186 176 186 194 188 138 0 344 355 6 13 11 41 124 112 90 95 84 59 50 52 53 83 107 118 125 130 131 132 130 127 129 132 134 135 134 132 131 136 139 139 140 139 145 150 148 149 150 148 147 146 148 151 149 146 144 142 139 139 140 142 144 147 151 155 159 159 157 156 156 153 151 145 136 130 127 127 127 128 130 132 134 134 132 135 143 151 154 153 149 137 133 133
180 151 217 210 182 182 200 201 196 222 331 331 336 26 13 337 288 183 186 125 123 103 65 60 83 89 106 119 125 129 133 133 134 138 137 142 145 141 135 134 133 134 139 137 137 141 144 151 154 149 143 145 151 153 153 151 150 148 144 143 140 140 142 143 146 149 153 156 157 157 158 158 156 152 150 149 142 135 132 128 127 128 128 129 128 128 129 130 135 146 159 157 157 161 147 134 124
175 182 229 201 202 240 229 215 221 227 308 320 323 341 354 330 225 262 247 163 178 180 134 136 140 134 132 133 133 134 138 136 139 145 146 147 147 141 137 136 136 137 136 132 137 147 153 155 157 163 154 152 161 162 159 154 150 148 147 146 144 146 148 148 150 153 157 159 160 161 161 162 157 150 148 145 140 138 136 132 133 134 134 135 132 131 136 141 146 152 155 148 155 162 150 135 120
156 200 218 148 177 240 244 233 225 212 254 293 320 315 330 53 159 257 179 167 230 232 186 168 167 157 148 144 142 141 143 143 146 151 151 148 144 140 139 137 134 131 126 127 136 150 160 159 163 177 169 158 166 165 160 156 153 153 153 152 150 152 154 155 158 161 163 166 170 170 169 169 164 159 157 153 151 149 144 144 150 150 145 146 144 142 145 147 152 159 155 147 163 164 152 146 127
160 199 196 138 157 231 261 268 236 184 215 258 304 317 323 98 189 186 179 191 233 246 217 167 162 161 157 152 147 147 150 151 153 155 153 150 147 140 136 135 133 130 128 131 142 161 171 168 169 179 174 165 169 166 161 158 157 157 158 160 159 158 159 161 163 165 167 171 176 178 178 180 175 168 164 162 162 159 156 161 167 163 158 155 150 150 149 147 153 161 160 162 175 171 161 155 140
208 194 189 194 185 233 258 267 231 157 178 250 267 315 328 267 318 151 200 237 335 341 281 169 158 162 160 153 151 154 157 160 159 159 157 154 153 148 144 144 139 141 149 151 158 172 178 174 171 174 171 169 170 166 162 162 162 162 164 166 165 163 164 166 165 165 167 170 174 180 184 188 184 175 171 167 163 167 171 178 180 175 169 160 151 155 157 150 147 152 171 180 177 170 163 146 127
230 198 227 224 193 227 237 235 260 190 215 240 289 307 282 261 309 146 208 268 351 347 176 152 151 158 160 158 159 160 159 161 158 154 154 156 159 155 153 153 149 155 165 164 166 174 179 175 172 171 169 172 172 167 164 169 169 165 167 169 170 168 168 171 169 168 169 170 174 180 184 189 189 183 177 167 163 175 185 185 185 183 175 165 161 165 170 159 146 142 159 172 166 164 164 147 121
221 214 225 210 197 235 245 255 264 254 238 203 192 258 263 242 213 205 247 349 26 73 129 142 148 157 162 164 163 161 158 154 145 139 145 158 163 160 158 158 160 165 169 168 168 175 181 177 175 174 170 171 174 172 170 173 171 168 169 171 175 175 174 174 173 172 172 175 181 186 190 192 193 191 184 175 174 186 196 192 190 190 179 177 178 173 176 177 167 148 132 150 161 162 167 162 140
207 203 207 216 246 266 263 265 253 255 246 159 189 234 258 218 180 216 277 29 97 124 136 145 153 160 164 165 163 158 149 138 131 134 147 163 170 168 165 167 171 168 165 169 171 177 184 180 179 177 172 171 173 175 177 178 174 175 177 175 176 177 175 174 175 177 179 183 188 195 203 201 199 202 196 186 184 192 205 199 194 195 187 186 189 180 177 181 186 176 152 160 163 159 180 185 171
173 182 222 236 271 299 266 265 249 266 250 187 207 237 76 172 203 215 206 140 143 138 144 154 157 164 164 160 154 137 128 127 126 132 143 160 180 185 177 178 179 168 165 172 174 182 187 183 180 174 172 172 170 174 181 182 178 179 179 175 177 177 175 175 179 183 186 188 193 205 210 207 211 215 206 190 189 207 214 203 198 200 197 193 191 186 183 178 183 191 189 188 190 213 236 225 208
155 173 250 250 282 278 236 263 261 239 245 193 201 216 97 150 210 223 158 154 157 146 149 158 159 164 162 149 130 122 125 125 126 140 156 169 185 192 190 184 179 174 176 178 178 184 186 184 183 176 173 171 170 174 181 183 180 180 179 179 182 178 178 180 183 188 192 195 204 213 212 214 224 228 220 202 201 214 218 213 208 206 203 196 192 192 193 190 192 203 212 204 202 216 241 252 237
143 156 262 268 314 264 215 250 251 195 229 162 166 192 161 186 191 139 151 158 157 151 154 157 160 167 160 138 123 131 129 124 139 170 180 180 184 188 193 185 177 178 180 183 183 180 179 184 186 183 177 175 177 177 180 182 180 180 181 184 185 179 181 185 190 198 201 201 207 212 213 223 234 237 228 213 211 216 213 214 212 212 206 196 197 199 200 206 211 225 241 237 217 220 238 254 247
165 132 273 284 306 248 191 150 103 180 206 150 173 230 220 205 180 148 159 163 158 156 161 164 166 166 151 135 132 137 130 137 163 184 179 182 189 192 194 184 179 178 176 182 185 180 177 182 187 188 185 184 185 181 180 180 179 185 184 184 185 181 182 187 197 203 191 190 192 197 216 231 234 235 231 219 221 222 206 204 207 213 209 199 205 211 215 224 230 243 248 242 229 227 237 249 256
140 142 168 316 238 208 171 141 152 179 160 159 202 244 229 213 178 166 170 170 167 164 167 170 170 163 149 142 143 143 143 159 173 171 172 185 195 197 192 182 182 181 175 179 185 185 182 182 187 190 189 191 191 185 182 183 188 192 184 180 177 171 165 162 168 160 161 175 174 185 214 231 232 238 242 222 216 215 203 203 206 211 208 205 217 227 232 242 244 248 246 236 229 237 242 249 264
53 192 181 179 221 227 295 180 190 201 70 162 206 238 238 235 159 167 174 179 177 171 169 171 171 161 152 154 151 147 149 163 165 164 183 191 197 198 190 183 185 182 176 177 185 189 187 185 188 188 188 192 192 186 186 192 192 185 175 168 160 147 135 135 137 137 149 154 140 169 197 214 235 247 255 227 214 218 212 214 219 215 205 200 211 223 232 242 245 244 239 229 218 233 239 242 257
52 256 196 175 201 237 319 141 211 258 77 182 214 230 233 263 146 170 174 184 183 173 167 169 172 162 156 162 157 153 153 161 167 180 195 197 204 203 188 184 189 186 179 180 186 187 185 185 187 188 189 189 188 188 191 189 181 170 161 157 149 141 139 138 137 137 138 128 108 111 155 183 212 223 231 215 223 241 239 236 236 205 192 185 187 199 224 243 246 244 239 233 216 219 234 236 238
175 245 193 194 212 225 252 138 82 262 178 210 217 219 224 45 138 171 172 185 185 175 171 170 174 168 165 166 160 161 161 173 189 201 202 200 208 208 190 184 190 188 183 186 187 182 181 182 184 189 191 188 188 189 186 177 169 162 157 151 143 141 141 139 136 136 134 124 114 114 125 142 157 175 184 159 183 249 245 228 143 141 165 163 169 194 229 245 249 250 241 243 242 219 245 245 235
168 186 187 199 223 220 257 264 106 149 225 219 196 211 227 84 143 171 171 183 185 181 175 172 175 176 176 173 170 170 167 187 203 204 200 202 208 210 194 184 189 189 187 188 182 178 180 179 181 189 192 189 189 186 177 169 165 158 151 146 142 141 139 135 133 132 129 119 113 112 108 110 113 122 129 120 125 157 174 165 152 180 207 227 300 257 234 232 240 246 241 246 247 205 231 231 223
145 160 199 202 233 238 257 267 242 228 239 212 196 212 215 167 161 173 173 182 187 187 179 175 179 180 182 181 179 175 174 195 209 205 200 205 210 211 198 189 188 185 185 182 175 176 176 175 180 188 190 188 184 177 171 167 161 154 151 147 141 142 139 134 132 129 123 116 113 106 97 94 90 99 110 111 111 114 119 132 151 214 273 287 292 294 247 222 217 230 224 213 189 177 238 226 206
130 142 201 220 246 261 265 254 1 280 232 210 203 222 212 166 168 171 178 186 189 191 186 186 188 187 187 187 186 181 178 194 211 216 211 209 212 210 198 194 189 182 186 183 176 177 171 169 176 179 183 187 181 174 175 172 164 159 158 155 148 145 142 136 133 130 125 120 112 102 94 89 87 96 103 102 99 90 89 87 62 36 335 308 300 227 218 176 115 146 187 179 159 172 242 235 198
129 173 232 234 222 255 287 118 358 291 224 209 153 198 189 140 168 164 175 186 194 201 198 197 197 197 195 192 193 190 181 180 195 217 220 214 214 208 195 194 189 185 191 187 182 181 170 164 171 176 183 187 183 181 182 178 172 168 161 158 152 146 145 142 138 134 128 122 113 108 98 88 88 98 103 101 94 81 73 65 55 52 42 41 66 82 180 150 124 124 170 180 154 174 238 255 205
127 162 237 212 209 262 291 235 348 10 213 179 121 160 98 45 157 117 119 169 189 202 204 210 207 205 204 199 197 197 192 180 182 205 217 216 213 207 199 195 191 190 192 188 185 180 166 161 167 178 185 185 184 183 181 179 176 171 161 156 152 147 148 147 140 132 123 120 121 124 114 95 94 106 114 108 91 77 66 57 54 53 49 53 64 64 72 112 131 138 158 183 156 164 224 262 203
182 171 212 200 179 257 163 129 350 3 10 86 122 130 75 57 114 126 53 52 103 155 184 214 219 216 213 207 202 201 201 198 195 200 207 214 212 207 203 196 189 188 185 181 185 179 165 172 180 185 186 186 186 179 176 180 174 166 159 156 153 149 148 146 138 130 124 122 126 133 133 121 112 118 124 112 90 78 68 58 51 44 40 48 58 63 70 75 83 106 113 144 156 168 192 195 174
218 206 216 227 219 243 247 34 316 288 60 64 116 136 103 91 144 162 163 126 129 136 169 203 220 227 222 216 216 211 210 207 207 209 208 211 211 208 206 195 180 173 162 158 167 164 153 166 175 175 179 184 187 179 175 179 171 162 159 155 153 148 146 146 139 132 129 122 120 127 129 124 119 123 128 117 97 82 66 54 44 33 30 47 60 62 69 73 73 79 79 86 130 182 181 172 165
228 214 216 220 209 234 266 0 285 195 102 52 353 168 132 84 127 156 159 191 182 163 193 206 210 219 219 220 221 218 219 214 212 215 214 212 212 211 204 182 152 136 125 121 128 148 172 186 171 135 157 185 188 185 180 178 171 166 166 162 158 152 147 148 145 137 134 126 122 123 121 120 120 123 129 120 102 83 56 37 24 21 28 54 67 62 62 67 69 69 72 76 82 147 163 165 165
224 208 203 202 185 184 218 210 194 184 124 68 333 213 150 96 94 138 180 196 190 177 203 212 211 214 214 219 222 220 222 219 216 218 218 217 214 209 189 143 121 112 113 124 144 166 182 193 187 173 187 198 190 185 180 175 173 175 177 173 168 162 153 153 153 144 137 131 126 123 119 119 121 120 123 117 103 88 53 29 13 20 40 62 68 59 58 63 63 61 65 74 77 89 110 127 153
194 161 165 168 169 179 182 160 145 167 83 145 357 336 162 129 118 223 205 184 193 204 210 212 214 214 211 214 217 217 218 217 216 217 219 223 213 186 133 114 114 114 122 142 161 174 182 188 185 180 187 192 190 183 179 181 183 185 182 174 168 166 159 156 155 146 140 137 130 127 124 122 123 121 120 117 111 100 66 37 18 18 29 49 55 51 56 61 58 59 68 77 81 85 85 75 102
301 115 124 138 149 157 152 130 115 62 239 177 17 351 182 154 113 177 183 176 193 212 218 220 223 224 222 219 215 212 214 215 217 217 220 226 154 97 95 99 105 116 140 160 166 174 182 186 185 183 182 185 196 192 185 191 195 189 180 169 163 165 164 160 155 148 145 142 136 130 128 126 125 124 123 123 121 106 72 43 22 13 21 36 46 47 52 56 58 66 69 72 78 82 80 76 84
137 127 101 92 88 78 80 110 115 113 215 182 12 347 211 188 57 106 175 168 176 214 237 241 249 252 245 238 230 216 209 211 215 217 207 119 99 104 106 104 110 134 169 174 169 172 181 184 182 181 181 185 198 197 190 195 197 189 178 167 164 166 166 162 155 151 149 146 142 134 130 128 125 128 131 129 123 103 71 47 36 37 36 31 40 45 48 53 58 67 69 74 78 74 70 70 84
145 135 102 97 76 51 62 42 74 178 203 165 4 341 296 201 221 296 219 126 9 310 285 280 299 293 271 254 244 227 215 209 195 178 124 107 113 122 128 134 149 168 175 169 168 176 183 181 178 180 185 187 195 197 194 195 194 190 181 172 170 169 168 166 160 156 155 152 147 140 134 131 131 137 140 134 123 98 71 61 66 74 65 48 44 43 51 62 65 68 72 76 72 62 62 69 82
147 134 127 135 87 32 113 39 339 203 192 93 16 329 278 210 197 246 286 353 340 306 296 303 304 296 290 283 260 231 211 166 141 143 125 119 127 135 138 146 155 165 170 170 176 182 181 177 176 179 183 188 197 199 197 196 195 193 186 181 179 173 170 171 168 164 162 160 155 148 141 135 137 145 144 136 123 97 76 79 85 83 77 68 62 54 58 75 84 86 82 71 61 58 67 77 86
161 135 148 163 150 167 201 207 218 222 222 50 9 308 234 236 271 294 315 336 336 318 303 300 297 291 298 310 282 183 117 119 132 142 132 128 139 147 147 154 162 168 172 171 171 172 173 177 179 176 179 191 202 202 199 200 200 196 190 187 187 180 174 175 177 173 170 169 165 158 150 142 145 150 148 140 126 105 90 91 89 83 79 73 70 71 74 81 89 93 88 79 78 80 84 88 92
182 162 163 172 152 157 194 185 230 247 249 29 349 290 197 209 302 296 315 331 336 332 320 305 298 302 344 48 89 91 89 99 112 122 124 127 141 146 148 160 169 167 147 115 102 154 172 179 181 179 182 194 203 204 202 203 202 199 194 192 193 188 181 182 186 183 177 175 172 165 155 148 152 155 152 144 131 115 103 98 91 84 79 71 65 66 70 78 83 85 88 92 99 99 96 96 96
173 171 162 173 165 176 202 196 203 211 158 87 154 207 192 157 58 326 323 334 353 355 354 17 49 75 86 91 94 92 92 93 100 110 117 130 144 138 137 157 152 96 86 95 133 192 190 182 183 187 191 196 201 202 201 202 202 200 197 196 197 195 190 189 192 189 183 177 172 165 153 145 151 158 156 149 137 125 112 102 96 90 84 74 64 59 62 70 78 88 96 97 98 95 90 93 95
126 348 146 180 183 151 140 139 166 189 151 138 178 215 271 221 265 306 308 351 42 34 51 91 97 103 104 101 99 98 97 96 100 110 123 145 156 149 147 151 99 99 102 119 173 204 203 193 192 197 202 204 204 202 199 200 201 201 201 200 200 199 195 193 191 189 185 178 171 162 150 143 148 153 152 147 139 129 117 110 105 97 90 81 70 62 61 65 70 80 93 96 91 83 76 78 82
133 182 177 169 75 113 115 114 55 12 204 175 170 223 226 218 198 182 173 145 109 84 86 98 104 112 111 107 110 112 111 112 115 122 141 157 163 161 155 118 91 125 135 154 184 196 203 205 202 201 205 206 204 204 203 202 201 201 203 203 202 200 198 197 194 189 183 178 172 162 150 148 150 153 150 144 141 135 120 109 105 99 92 86 79 71 66 65 64 68 80 88 90 85 77 73 73
142 182 163 135 80 83 111 149 91 126 205 173 127 226 183 197 181 153 167 160 129 110 91 95 106 113 111 107 111 115 118 124 120 116 134 154 168 164 138 115 134 160 159 171 192 195 202 210 209 203 203 204 204 205 205 204 204 204 206 206 204 203 201 200 199 193 184 178 175 167 156 152 154 156 156 145 139 139 131 111 99 92 86 81 81 80 72 65 62 62 68 77 84 87 81 76 75
45 143 134 133 189 166 146 162 152 181 200 166 154 252 236 213 203 165 186 179 146 140 126 124 122 110 107 101 98 98 105 113 115 115 112 191 205 161 126 121 156 189 177 179 199 203 205 212 214 207 206 206 205 206 206 206 207 210 213 212 208 205 202 202 203 198 189 181 178 172 160 155 156 159 163 156 142 141 144 134 101 81 78 77 81 91 84 70 64 59 60 66 73 79 83 83 84
57 118 118 24 272 174 171 153 170 190 191 164 160 197 231 214 216 192 187 181 169 165 160 158 145 117 114 110 120 139 113 110 122 124 130 219 227 143 117 129 157 183 185 185 203 213 213 217 220 214 211 210 207 207 207 207 207 209 214 213 209 206 203 204 205 201 196 189 182 176 167 162 162 164 168 168 158 149 150 152 133 98 78 72 74 87 87 72 64 57 54 53 49 58 80 90 87
121 155 157 148 86 87 173 108 35 196 177 169 169 196 216 168 66 217 180 186 186 174 164 169 163 141 136 127 149 164 125 121 119 121 152 199 182 89 94 131 160 173 180 187 201 212 214 218 224 220 213 208 204 207 207 207 206 206 209 211 210 207 203 205 207 204 201 196 188 183 177 173 173 171 169 174 177 170 163 166 169 186 267 322 3 23 29 23 26 29 29 17 0 3 28 56 62
170 177 174 159 131 143 169 164 162 14 169 180 173 192 170 81 29 303 312 287 207 174 167 162 137 128 127 118 124 122 108 119 129 141 156 143 88 81 95 130 153 160 169 185 199 208 211 215 221 221 216 204 196 201 203 204 204 205 208 211 211 208 204 206 209 206 203 201 196 191 187 185 186 183 178 184 190 186 175 176 197 261 296 315 329 339 347 348 348 344 340 339 328 318 306 302 307